Location: Aldenham
(51.6667°N, 0.3500°W)
Time: 06:51:47
(UTC+00:00)

CZ-4C R/B - Pass Details

Date: 18 November 2025
Orbit: 487 x 1492 km, 63.4° (Epoch: 10 December)

Event Time Altitude Azimuth Distance (km) Brightness Sun altitude
Rises 16:54:08 0° 253° (WSW) 2,869 7.5 -7.3°
Reaches altitude 10° 16:56:17 10° 261° (W) 2,074 5.8 -7.6°
Maximum altitude 17:00:46 42° 333° (NNW) 1,102 2.9 -8.3°
Drops below altitude 10° 17:06:31 10° 43° (NE) 2,673 4.3 -9.1°
Enters shadow 17:07:06 - 45° (NE) 2,883 4.4 -9.2°
